Wind_Speed
5 5 3 3 4 5 11 6 17 18 17 13 13 7 7 9 6 3 17 18 18 15 14 15 14 13 12 10 9 8 9 9 8 8 8 11 14 14 16 15 13 14 12 14 15 16 16 16 17
4 3 4 4 5 11 7 14 17 16 15 10 9 5 6 8 3 14 17 19 18 15 14 14 13 13 11 10 10 10 10 9 7 7 5 9 14 16 16 16 14 14 13 14 15 15 16 15 14
5 6 6 5 4 5 10 14 14 10 10 9 2 8 5 3 17 16 18 17 18 16 13 14 12 13 12 10 9 9 9 9 8 7 4 9 15 18 17 16 15 14 15 15 15 15 16 15 13
7 7 8 6 7 7 8 12 12 12 11 5 1 5 4 13 18 19 16 14 17 17 14 14 12 11 12 10 9 8 8 9 10 7 5 8 16 20 19 17 16 15 15 14 12 12 12 13 12
9 9 8 11 10 8 7 8 10 8 3 1 3 7 19 21 22 17 17 16 16 15 14 13 12 9 10 9 10 10 8 8 9 9 8 10 17 20 19 18 16 15 15 14 12 12 12 12 11
7 7 10 14 14 11 9 7 9 5 1 3 6 14 22 21 18 19 18 16 17 14 12 11 11 9 9 9 9 9 8 8 8 10 10 11 18 20 19 17 16 14 14 14 13 12 13 12 10
8 7 6 10 12 13 9 8 3 3 3 1 8 13 19 21 20 19 19 17 16 15 12 10 9 7 7 7 8 9 7 7 8 10 10 12 15 19 18 16 15 14 13 14 13 12 13 12 10
5 1 1 6 7 9 8 9 6 6 5 8 10 11 18 22 21 22 19 18 17 16 13 12 9 7 6 5 6 5 7 5 7 9 10 11 14 17 17 15 14 14 13 14 13 11 12 13 12
4 1 3 5 8 10 8 10 9 9 6 10 11 6 13 21 18 18 21 16 17 16 13 12 9 5 4 5 5 4 6 8 7 8 9 9 12 12 15 15 13 13 13 12 10 9 9 10 11
7 8 4 3 9 10 8 8 9 10 8 6 8 9 14 15 14 15 15 12 13 14 13 10 8 6 5 4 4 3 6 7 4 7 7 8 9 11 12 13 14 14 11 10 10 9 8 7 9
5 8 2 7 8 8 10 12 9 13 14 13 11 5 12 15 14 12 11 10 10 11 10 8 6 6 5 5 4 3 5 7 6 7 8 8 8 9 10 11 12 12 11 9 8 7 7 7 8
5 2 4 8 8 5 7 11 12 11 10 15 11 7 9 11 13 17 11 11 6 8 9 8 6 5 4 4 3 4 5 6 6 5 6 7 8 9 9 10 11 11 10 9 9 8 7 6 5
5 3 3 7 9 6 9 8 6 3 5 7 12 7 9 18 15 16 16 10 9 7 6 6 5 5 5 4 3 4 5 6 5 5 5 5 6 7 8 10 10 11 11 10 10 9 8 8 8
8 11 10 11 11 8 5 1 2 3 3 3 4 9 8 16 11 12 14 9 8 8 8 5 3 3 4 4 6 5 7 5 5 5 7 6 6 7 7 9 9 11 11 11 10 9 9 9 9
9 10 7 6 7 5 4 7 5 4 5 5 3 3 7 12 12 14 15 11 10 7 5 4 2 2 2 4 4 5 5 8 6 4 5 6 5 6 8 7 8 10 12 13 13 12 11 9 9
11 10 11 10 9 9 10 9 11 9 9 8 7 4 4 10 12 13 11 10 9 7 4 4 4 5 7 6 6 5 5 6 8 7 8 6 4 3 6 7 8 9 10 11 12 13 12 11 11
16 10 13 11 15 15 12 15 14 12 10 5 5 9 3 2 14 17 13 9 9 5 4 4 6 7 8 10 9 7 7 8 8 8 8 7 5 4 5 6 6 6 5 10 11 11 11 11 12
14 13 16 13 16 19 19 18 18 16 13 8 5 9 9 2 3 12 13 13 11 7 3 1 5 9 8 9 9 9 8 8 7 9 8 10 8 5 6 6 6 6 6 6 8 10 9 9 11
6 15 19 13 16 19 18 19 20 20 18 14 9 5 7 5 2 10 13 15 12 8 4 1 3 6 6 6 8 9 7 7 7 9 9 11 9 7 5 6 5 5 5 7 8 7 8 9 10
8 10 17 19 17 21 19 14 19 21 14 11 10 9 6 9 10 5 16 18 13 7 4 3 4 5 6 6 8 7 10 11 12 10 8 11 9 8 6 6 5 4 5 5 9 8 7 6 5
14 15 19 21 19 16 18 19 15 18 17 13 14 14 12 11 12 10 8 14 13 10 5 2 5 6 6 7 8 8 9 10 12 11 10 8 6 9 5 4 3 7 9 9 7 11 10 6 3
16 14 12 14 16 9 10 7 7 10 15 16 14 12 14 12 12 14 13 10 11 10 8 8 8 10 7 7 6 5 5 7 12 10 11 8 9 8 7 1 5 8 9 8 8 8 10 8 6
13 11 7 10 17 16 13 7 5 11 17 20 23 15 11 12 13 13 11 7 6 9 10 8 10 12 9 6 7 7 6 6 12 12 10 6 10 11 10 8 7 6 5 9 10 8 8 9 8
6 7 7 11 13 8 20 8 19 9 6 10 7 16 13 15 15 14 12 13 10 12 12 10 13 14 11 8 7 5 6 5 4 6 8 6 12 14 12 7 5 5 4 6 6 8 7 7 8
12 8 2 2 2 7 4 9 26 14 11 5 7 12 10 14 17 17 17 15 16 14 14 10 12 17 12 9 8 7 7 6 6 6 8 4 2 10 9 5 8 8 6 9 8 8 6 6 7
18 19 9 7 5 5 11 10 18 18 21 18 17 17 13 15 16 17 15 16 15 15 16 12 6 11 11 10 8 9 9 8 8 7 5 6 5 6 8 9 12 11 8 7 8 9 8 6 5
21 18 20 11 5 2 7 19 25 21 20 18 19 15 20 13 16 17 17 16 15 16 18 16 10 6 8 8 7 9 9 9 8 8 7 8 8 8 8 10 10 10 8 8 8 8 8 7 6
19 17 11 11 4 4 8 19 18 23 20 16 15 14 21 17 13 16 20 18 16 15 17 18 15 13 5 7 4 5 8 9 10 10 8 9 12 11 11 8 8 9 7 7 8 8 8 8 5
22 22 18 16 9 8 4 9 21 27 28 25 22 11 17 19 12 15 19 20 18 16 18 22 18 16 12 9 6 3 6 8 10 10 10 11 13 13 12 15 14 12 10 9 9 8 6 3 5
28 30 29 19 10 13 13 18 28 25 27 28 20 17 10 15 14 13 12 16 14 20 20 23 21 17 15 9 8 5 7 9 10 10 9 10 12 12 15 24 21 16 12 8 6 5 7 6 7
Wind_Direction
72 94 82 24 53 95 114 118 150 149 145 146 148 131 97 131 90 117 147 141 134 131 124 118 121 114 102 95 89 81 95 88 80 87 111 140 147 141 131 127 130 125 127 125 120 117 116 117 118
59 53 33 51 94 136 124 144 160 158 150 158 176 174 134 144 5 145 144 140 134 129 124 120 118 110 106 100 92 87 92 83 71 51 92 137 153 147 140 135 136 133 130 126 127 119 117 117 120
53 44 52 78 90 119 151 159 156 159 152 161 179 215 183 130 143 141 139 139 133 130 128 120 116 114 108 104 104 103 100 97 89 58 78 139 157 150 149 143 141 136 132 128 119 120 117 115 118
61 58 64 82 82 99 141 145 164 167 146 144 110 218 169 144 133 130 128 137 136 133 130 125 120 118 113 110 103 98 106 105 106 88 87 143 158 155 151 148 144 139 135 134 127 121 121 119 118
60 68 87 95 82 105 141 145 156 168 204 47 172 142 135 142 141 139 142 144 135 133 133 130 123 124 114 109 106 99 90 93 99 90 83 132 152 156 152 150 149 142 139 137 134 127 119 115 113
80 96 112 93 89 89 111 144 171 171 147 114 123 146 143 147 150 147 145 146 136 133 134 129 122 126 116 107 99 89 86 86 93 93 88 120 147 154 156 154 151 149 146 146 143 139 132 126 121
78 95 106 118 106 86 96 132 117 31 337 99 143 156 154 153 154 154 149 146 144 136 136 130 124 123 115 109 99 95 85 96 99 104 101 115 141 153 156 157 157 154 152 153 153 148 141 141 130
42 61 238 133 127 116 98 95 79 91 92 97 134 175 169 160 163 156 149 151 144 139 140 137 132 134 127 113 97 90 81 89 103 112 113 116 135 155 158 163 165 159 156 161 163 159 159 160 160
20 216 195 161 138 135 136 116 106 121 109 103 125 166 183 164 150 164 149 155 149 142 147 142 142 145 134 119 101 91 79 85 113 110 123 124 130 149 164 167 167 167 162 167 166 160 165 165 167
24 29 255 176 107 107 119 105 88 98 98 92 120 161 174 173 149 159 148 158 152 148 152 151 153 157 160 127 109 102 99 99 121 119 117 136 138 149 156 171 171 171 173 177 174 167 171 175 175
23 12 74 169 133 101 83 107 96 84 82 67 68 151 165 183 162 148 141 148 162 164 158 155 176 177 164 143 128 130 133 119 114 149 136 132 150 155 159 165 172 178 181 184 189 177 178 179 181
345 320 204 162 149 110 86 101 103 91 86 72 70 97 178 177 149 130 169 154 192 172 175 182 190 179 157 121 119 151 136 129 132 140 151 142 146 160 171 172 178 189 192 200 204 203 194 196 186
71 128 123 134 123 101 98 85 80 111 99 80 64 103 141 159 140 155 166 174 189 181 177 184 187 167 151 122 135 172 148 138 142 148 149 161 159 162 169 184 191 191 197 202 212 217 216 219 212
97 106 124 112 114 110 84 90 75 13 194 142 85 63 142 172 173 171 154 164 153 155 168 180 176 136 160 175 187 189 182 178 147 153 160 152 161 173 177 183 197 209 209 214 217 221 221 228 230
137 150 142 148 147 171 218 250 288 281 273 272 194 64 113 162 181 155 147 145 119 99 91 119 176 200 219 234 226 201 186 185 178 178 179 165 170 186 191 193 197 206 216 222 224 229 238 246 254
165 175 187 201 201 213 239 269 288 281 272 274 232 224 87 182 179 168 153 150 147 118 106 151 192 207 219 220 226 215 190 185 197 205 197 173 153 172 185 194 203 208 215 223 225 231 237 245 252
182 206 209 223 224 228 239 269 270 258 248 239 268 230 223 95 199 207 202 182 156 142 107 144 183 195 213 220 223 211 205 205 203 204 184 191 190 184 200 201 189 198 197 213 219 228 235 242 251
205 225 225 251 245 237 248 259 277 274 285 285 223 254 233 247 185 217 222 200 191 156 118 162 205 194 211 222 231 231 218 200 184 198 207 194 199 203 214 202 198 198 211 212 211 223 241 246 258
235 243 248 264 264 249 250 260 263 269 270 264 237 242 250 251 152 190 211 200 195 181 124 259 235 219 221 222 233 229 215 205 213 210 214 205 201 203 222 208 191 199 207 214 207 216 233 237 255
263 267 243 260 257 249 271 284 261 258 271 280 253 251 246 241 244 208 205 206 202 190 201 298 275 214 216 240 245 251 228 215 211 218 225 209 219 219 202 210 227 227 214 210 223 216 223 234 256
268 273 273 263 274 265 290 284 246 257 253 263 251 249 241 250 246 246 231 217 201 201 169 272 281 252 240 238 253 242 235 220 217 223 221 224 255 184 192 195 273 247 235 232 249 230 229 237 271
261 290 293 260 263 261 301 297 274 256 263 272 276 261 238 229 246 244 243 228 217 194 198 242 268 247 233 229 240 250 240 230 220 217 221 238 211 186 169 170 230 248 258 251 233 219 231 227 222
282 322 325 257 254 276 284 291 313 297 276 268 276 276 241 218 226 227 232 215 171 198 208 233 253 241 231 220 213 231 243 249 222 212 220 229 203 205 195 196 210 227 293 262 246 234 240 235 232
272 292 276 250 251 271 271 259 300 307 302 304 266 256 245 214 202 199 205 227 208 210 221 230 247 235 223 217 210 217 243 233 219 219 214 224 229 221 212 204 210 245 299 275 237 232 232 230 234
253 243 125 307 312 231 273 255 263 289 313 290 229 229 226 210 204 199 198 197 202 209 212 214 229 218 210 208 208 208 221 227 221 207 216 243 211 203 218 211 239 253 244 232 238 231 225 222 218
239 239 204 190 206 243 238 238 259 302 319 300 301 235 230 222 210 207 194 186 193 202 198 191 215 214 204 196 204 213 215 216 222 211 209 207 183 215 208 231 239 218 239 218 222 229 231 212 181
237 235 249 244 213 246 229 258 269 283 305 309 315 241 228 224 215 206 192 186 186 189 199 185 188 189 192 177 196 218 219 212 215 218 216 220 215 232 242 261 215 199 223 215 217 202 205 203 203
229 240 208 217 147 233 263 255 264 284 286 319 311 294 224 227 217 198 193 189 181 190 198 182 184 214 191 175 178 216 220 210 215 216 218 227 240 242 225 232 197 197 199 206 196 191 199 197 210
220 230 223 240 220 174 212 244 279 280 278 288 306 287 235 228 207 206 196 189 182 187 198 195 190 197 220 207 193 237 237 216 214 210 217 236 247 246 237 227 226 205 186 188 176 185 201 177 302
231 243 235 214 229 222 247 261 271 274 276 267 293 283 251 204 199 190 184 193 205 195 203 204 197 196 219 219 202 225 241 222 203 210 215 241 257 253 258 233 217 202 200 190 194 215 226 217 249
Height
3149 3149 3149 3148 3153 3150 3151 3155 3154 3156 3159 3160 3163 3165 3166 3167 3170 3174 3172 3173 3174 3177 3179 3180 3182 3183 3184 3184 3184 3185 3186 3187 3188 3189 3189 3190 3191 3192 3193 3194 3196 3198 3200 3202 3204 3205 3205 3206 3207
3152 3151 3151 3150 3151 3151 3154 3155 3156 3159 3161 3162 3164 3165 3167 3168 3169 3170 3173 3175 3177 3179 3181 3183 3185 3186 3187 3187 3187 3187 3187 3187 3189 3190 3190 3191 3192 3194 3195 3196 3198 3199 3202 3204 3206 3208 3210 3210 3211
3154 3153 3154 3153 3154 3154 3156 3157 3158 3161 3161 3164 3165 3167 3167 3170 3170 3173 3176 3178 3179 3181 3184 3186 3188 3188 3189 3190 3190 3190 3189 3189 3190 3191 3192 3192 3194 3196 3198 3199 3201 3202 3205 3207 3209 3210 3212 3214 3215
3156 3156 3156 3156 3156 3156 3158 3159 3161 3162 3164 3167 3164 3168 3169 3172 3173 3176 3179 3181 3182 3183 3186 3187 3189 3191 3191 3192 3192 3193 3192 3192 3192 3193 3193 3194 3195 3197 3200 3202 3203 3205 3208 3210 3211 3213 3215 3216 3217
3157 3157 3157 3157 3158 3159 3160 3162 3163 3165 3166 3168 3167 3169 3169 3172 3175 3177 3180 3183 3184 3186 3187 3189 3190 3192 3192 3193 3193 3194 3195 3195 3194 3195 3194 3195 3196 3199 3202 3204 3206 3208 3210 3212 3213 3214 3216 3217 3219
3157 3159 3160 3159 3160 3161 3162 3164 3165 3167 3168 3169 3169 3170 3172 3175 3177 3179 3182 3185 3185 3187 3189 3191 3193 3194 3194 3195 3194 3195 3196 3196 3196 3196 3196 3197 3198 3201 3204 3206 3208 3210 3212 3213 3214 3216 3217 3218 3220
3160 3161 3162 3162 3163 3163 3164 3165 3167 3168 3169 3170 3171 3173 3175 3176 3178 3181 3183 3185 3187 3188 3191 3192 3194 3195 3196 3196 3196 3196 3197 3198 3198 3198 3199 3200 3201 3203 3206 3208 3210 3212 3213 3215 3216 3217 3219 3220 3221
3162 3164 3163 3164 3165 3166 3167 3167 3169 3170 3171 3171 3173 3176 3176 3177 3180 3182 3184 3186 3188 3189 3192 3193 3195 3196 3197 3198 3198 3198 3199 3200 3200 3200 3201 3203 3204 3206 3207 3209 3211 3213 3215 3216 3217 3219 3220 3221 3222
3164 3165 3165 3166 3166 3167 3168 3168 3170 3171 3172 3173 3174 3176 3179 3179 3182 3184 3186 3188 3188 3190 3193 3194 3196 3197 3198 3199 3199 3199 3200 3201 3202 3202 3203 3205 3206 3208 3209 3210 3212 3214 3216 3217 3218 3220 3221 3223 3223
3164 3165 3165 3167 3168 3168 3169 3170 3171 3172 3173 3174 3176 3177 3178 3182 3185 3187 3189 3191 3190 3192 3194 3195 3197 3198 3199 3200 3200 3201 3202 3202 3204 3205 3205 3206 3208 3209 3211 3212 3213 3215 3217 3218 3219 3220 3222 3223 3224
3165 3165 3166 3167 3169 3169 3170 3171 3173 3174 3175 3176 3176 3178 3180 3183 3186 3188 3191 3192 3192 3194 3195 3196 3198 3199 3200 3200 3201 3203 3204 3204 3205 3206 3206 3207 3209 3211 3212 3214 3215 3216 3217 3219 3220 3222 3223 3224 3225
3165 3165 3166 3168 3169 3171 3172 3173 3174 3176 3178 3178 3178 3179 3181 3183 3186 3189 3193 3194 3193 3195 3196 3197 3199 3200 3200 3201 3202 3204 3204 3204 3206 3207 3208 3208 3210 3211 3213 3214 3215 3217 3218 3219 3220 3222 3223 3224 3225
3167 3167 3167 3169 3171 3172 3174 3175 3177 3178 3179 3180 3180 3181 3181 3185 3187 3189 3192 3194 3194 3196 3196 3197 3199 3200 3201 3202 3203 3205 3205 3206 3206 3208 3209 3210 3211 3212 3213 3214 3216 3216 3218 3219 3220 3221 3223 3224 3225
3169 3169 3170 3171 3172 3173 3174 3175 3177 3178 3178 3180 3181 3182 3183 3185 3188 3189 3191 3193 3195 3196 3197 3198 3198 3200 3202 3203 3204 3204 3205 3206 3208 3209 3210 3211 3211 3212 3213 3214 3215 3216 3217 3218 3219 3221 3222 3223 3224
3170 3170 3171 3172 3172 3173 3174 3174 3174 3176 3177 3179 3181 3182 3184 3186 3187 3189 3191 3193 3194 3195 3196 3197 3198 3200 3202 3203 3204 3204 3205 3206 3208 3210 3211 3211 3211 3212 3213 3214 3215 3216 3217 3218 3219 3220 3221 3222 3222
3171 3172 3171 3172 3172 3173 3174 3172 3172 3173 3175 3177 3180 3182 3183 3185 3189 3189 3190 3192 3194 3195 3196 3197 3198 3200 3202 3202 3203 3204 3205 3206 3209 3210 3211 3211 3212 3213 3214 3214 3214 3215 3216 3217 3219 3220 3221 3221 3222
3171 3171 3172 3172 3172 3172 3173 3170 3172 3172 3173 3175 3178 3181 3183 3183 3186 3188 3190 3191 3193 3195 3196 3197 3198 3200 3201 3202 3202 3203 3204 3206 3208 3210 3211 3211 3212 3213 3214 3214 3214 3215 3215 3217 3218 3219 3220 3221 3221
3171 3171 3171 3170 3171 3170 3171 3170 3169 3170 3171 3173 3175 3178 3180 3182 3182 3186 3188 3190 3192 3194 3196 3197 3197 3198 3200 3201 3202 3203 3205 3207 3208 3210 3211 3211 3211 3212 3213 3214 3214 3215 3216 3216 3217 3219 3219 3220 3220
3170 3170 3170 3169 3168 3168 3169 3169 3168 3168 3169 3170 3172 3174 3176 3179 3180 3182 3186 3188 3189 3192 3194 3196 3196 3197 3199 3200 3202 3203 3204 3206 3208 3208 3209 3210 3212 3212 3214 3214 3214 3215 3216 3216 3216 3218 3219 3220 3219
3169 3169 3168 3168 3167 3167 3166 3164 3162 3162 3164 3166 3170 3172 3174 3177 3178 3180 3182 3184 3186 3189 3191 3194 3195 3196 3197 3198 3200 3201 3203 3204 3205 3207 3208 3209 3211 3211 3212 3214 3215 3215 3216 3216 3216 3217 3218 3219 3219
3167 3167 3165 3165 3166 3166 3164 3158 3157 3158 3160 3162 3165 3169 3171 3173 3175 3178 3179 3181 3184 3186 3188 3191 3193 3194 3195 3196 3197 3200 3201 3202 3203 3205 3206 3208 3210 3210 3212 3213 3215 3214 3215 3215 3216 3216 3217 3218 3219
3164 3165 3162 3163 3164 3164 3163 3159 3154 3155 3157 3157 3160 3164 3167 3170 3173 3175 3177 3179 3181 3184 3186 3189 3191 3192 3193 3193 3195 3197 3199 3200 3201 3202 3204 3207 3208 3209 3210 3211 3213 3213 3214 3215 3216 3216 3217 3217 3218
3162 3160 3161 3162 3163 3162 3161 3161 3153 3152 3153 3154 3156 3159 3163 3167 3170 3172 3175 3178 3179 3182 3184 3187 3189 3190 3190 3191 3193 3195 3198 3199 3199 3201 3202 3204 3207 3208 3208 3208 3209 3210 3211 3213 3215 3216 3216 3216 3217
3158 3159 3161 3161 3161 3160 3157 3159 3146 3150 3152 3152 3153 3156 3159 3162 3165 3169 3172 3175 3176 3179 3181 3183 3186 3187 3187 3189 3190 3193 3195 3197 3197 3200 3201 3202 3203 3204 3206 3207 3208 3209 3210 3212 3213 3215 3216 3217 3217
3156 3157 3161 3164 3162 3159 3155 3157 3148 3147 3150 3152 3153 3154 3155 3158 3162 3165 3167 3170 3172 3174 3178 3180 3182 3184 3185 3187 3188 3191 3194 3195 3197 3198 3200 3201 3201 3202 3205 3206 3207 3208 3209 3210 3212 3214 3215 3215 3216
3152 3153 3155 3162 3162 3153 3152 3149 3144 3144 3145 3146 3148 3150 3151 3153 3157 3161 3164 3167 3169 3171 3174 3178 3181 3182 3183 3185 3187 3189 3192 3194 3196 3197 3199 3199 3201 3202 3203 3203 3204 3205 3208 3209 3212 3214 3215 3215 3216
3147 3148 3152 3151 3153 3154 3149 3144 3142 3143 3143 3142 3142 3143 3146 3149 3153 3157 3161 3164 3167 3169 3172 3175 3179 3181 3182 3184 3186 3188 3190 3193 3195 3195 3197 3199 3199 3200 3201 3201 3201 3204 3207 3208 3211 3212 3214 3215 3216
3144 3147 3148 3149 3153 3154 3144 3142 3139 3139 3139 3139 3139 3139 3141 3145 3148 3152 3157 3161 3165 3167 3170 3172 3175 3179 3181 3182 3184 3186 3188 3190 3193 3194 3196 3197 3198 3198 3199 3200 3201 3203 3205 3207 3209 3211 3213 3215 3216
3140 3140 3143 3144 3144 3143 3146 3140 3137 3135 3136 3135 3136 3137 3138 3142 3146 3149 3153 3157 3161 3165 3168 3170 3173 3176 3178 3180 3182 3185 3187 3189 3191 3192 3194 3195 3194 3195 3197 3197 3200 3202 3205 3208 3209 3211 3213 3215 3216
3134 3136 3136 3136 3139 3137 3135 3131 3132 3133 3133 3134 3134 3133 3135 3139 3143 3147 3151 3155 3158 3161 3165 3167 3170 3173 3176 3178 3180 3183 3185 3187 3189 3190 3192 3192 3192 3193 3193 3193 3197 3201 3204 3208 3210 3211 3211 3213 3214